BVX290 KIND-KMSP

Flight info

Callsign BVX290
Flight time 1h 29m
Altitude 36000
Route MEARZ7 BVT J89 OBK KAMMA KKILR3
Aircraft A320/M-SDE3FGHIRWY/LB1

Departure

Time 2026-05-05 22:57
Airport Indianapolis International Airport (KIND)

Arrival

Time 2026-05-06 00:26
Airport Minneapolis–Saint Paul International Airport / Wold–Chamberlain Field (KMSP)
Time Latitude Longitude Altitude Speed Heading
2026-05-05 22:26 39.71486 -86.29437 788 ft 0 kts 309°
2026-05-05 22:46 39.71475 -86.29420 786 ft 3 kts 309°
2026-05-05 22:47 39.71462 -86.29399 785 ft 3 kts 309°
2026-05-05 22:47 39.71449 -86.29378 785 ft 3 kts 309°
2026-05-05 22:47 39.71436 -86.29358 785 ft 3 kts 309°
2026-05-05 22:47 39.71423 -86.29337 784 ft 3 kts 305°
2026-05-05 22:48 39.71414 -86.29314 784 ft 3 kts 278°
2026-05-05 22:48 39.71414 -86.29296 784 ft 0 kts 231°
2026-05-05 22:50 39.71410 -86.29302 783 ft 4 kts 231°
2026-05-05 22:50 39.71378 -86.29352 783 ft 11 kts 230°
2026-05-05 22:51 39.71318 -86.29397 781 ft 9 kts 184°
2026-05-05 22:51 39.71265 -86.29396 780 ft 8 kts 176°
2026-05-05 22:51 39.71207 -86.29388 781 ft 8 kts 174°
2026-05-05 22:51 39.71151 -86.29388 781 ft 8 kts 186°
2026-05-05 22:52 39.71086 -86.29412 781 ft 13 kts 202°
2026-05-05 22:52 39.71022 -86.29468 779 ft 9 kts 223°
2026-05-05 22:52 39.70988 -86.29511 780 ft 4 kts 225°
2026-05-05 22:52 39.70970 -86.29534 780 ft 5 kts 225°
2026-05-05 22:53 39.70932 -86.29582 781 ft 10 kts 224°
2026-05-05 22:53 39.70873 -86.29657 783 ft 14 kts 224°
2026-05-05 22:53 39.70789 -86.29764 783 ft 19 kts 225°
2026-05-05 22:53 39.70694 -86.29887 787 ft 16 kts 224°
2026-05-05 22:54 39.70624 -86.29975 784 ft 12 kts 224°
2026-05-05 22:54 39.70576 -86.30037 784 ft 10 kts 224°
2026-05-05 22:54 39.70531 -86.30093 784 ft 6 kts 224°
2026-05-05 22:54 39.70497 -86.30136 783 ft 8 kts 225°
2026-05-05 22:55 39.70409 -86.30249 781 ft 24 kts 224°
2026-05-05 22:55 39.70298 -86.30390 782 ft 18 kts 224°
2026-05-05 22:55 39.70225 -86.30484 782 ft 12 kts 225°
2026-05-05 22:55 39.70186 -86.30533 783 ft 4 kts 225°
2026-05-05 22:56 39.70121 -86.30547 783 ft 19 kts 150°
2026-05-05 22:56 39.70047 -86.30436 783 ft 11 kts 95°
2026-05-05 22:56 39.70083 -86.30365 782 ft 9 kts 45°
2026-05-05 22:56 39.70153 -86.30278 781 ft 36 kts 45°
2026-05-05 22:57 39.70546 -86.29779 785 ft 117 kts 44°
2026-05-05 22:57 39.71268 -86.28868 907 ft 166 kts 42°
2026-05-05 22:57 39.72119 -86.27827 1774 ft 161 kts 39°
2026-05-05 22:57 39.72960 -86.26794 2323 ft 176 kts 38°
2026-05-05 22:58 39.73908 -86.25645 2604 ft 197 kts 39°
2026-05-05 22:58 39.75138 -86.24763 2959 ft 213 kts 10°
2026-05-05 22:58 39.76664 -86.24985 3327 ft 236 kts 336°
2026-05-05 22:58 39.78182 -86.25983 3969 ft 251 kts 330°
2026-05-05 22:59 39.79769 -86.27087 4618 ft 266 kts 329°
2026-05-05 22:59 39.81426 -86.28255 5369 ft 275 kts 328°
2026-05-05 22:59 39.83126 -86.29450 6215 ft 280 kts 327°
2026-05-05 22:59 39.84833 -86.30644 7045 ft 284 kts 327°
2026-05-05 23:00 39.88359 -86.33088 8733 ft 291 kts 326°
2026-05-05 23:00 39.90161 -86.34333 9576 ft 294 kts 326°
2026-05-05 23:00 39.91983 -86.35593 10188 ft 306 kts 326°
2026-05-05 23:01 39.93930 -86.36952 10473 ft 329 kts 326°
2026-05-05 23:01 39.95983 -86.38388 11046 ft 338 kts 325°
2026-05-05 23:01 39.98066 -86.39838 11809 ft 341 kts 326°
2026-05-05 23:01 40.00149 -86.41282 12483 ft 347 kts 327°
2026-05-05 23:02 40.02306 -86.42771 13178 ft 352 kts 327°
2026-05-05 23:02 40.04481 -86.44274 13837 ft 357 kts 326°
2026-05-05 23:02 40.06684 -86.45800 14495 ft 359 kts 326°
2026-05-05 23:02 40.08890 -86.47331 15176 ft 360 kts 326°
2026-05-05 23:03 40.11107 -86.48877 15855 ft 362 kts 325°
2026-05-05 23:03 40.13318 -86.50453 16552 ft 361 kts 321°
2026-05-05 23:03 40.15310 -86.52405 17227 ft 354 kts 310°
2026-05-05 23:03 40.17031 -86.54689 17891 ft 353 kts 307°
2026-05-05 23:04 40.18738 -86.56996 18512 ft 354 kts 307°
2026-05-05 23:04 40.20436 -86.59286 19077 ft 356 kts 307°
2026-05-05 23:04 40.22191 -86.61650 19562 ft 361 kts 307°
2026-05-05 23:04 40.23925 -86.63984 20059 ft 363 kts 307°
2026-05-05 23:05 40.25695 -86.66360 20599 ft 365 kts 307°
2026-05-05 23:05 40.27475 -86.68749 21134 ft 367 kts 307°
2026-05-05 23:05 40.29251 -86.71140 21671 ft 368 kts 307°
2026-05-05 23:05 40.31044 -86.73559 22197 ft 370 kts 307°
2026-05-05 23:06 40.32830 -86.75971 22725 ft 371 kts 307°
2026-05-05 23:06 40.34637 -86.78411 23236 ft 373 kts 307°
2026-05-05 23:06 40.36449 -86.80860 23691 ft 374 kts 307°
2026-05-05 23:06 40.38233 -86.83279 24117 ft 376 kts 307°
2026-05-05 23:07 40.40048 -86.85743 24530 ft 377 kts 307°
2026-05-05 23:07 40.41880 -86.88227 24956 ft 378 kts 307°
2026-05-05 23:07 40.43709 -86.90708 25394 ft 379 kts 307°
2026-05-05 23:07 40.45538 -86.93190 25826 ft 379 kts 307°
2026-05-05 23:08 40.47374 -86.95684 26243 ft 380 kts 307°
2026-05-05 23:08 40.49217 -86.98195 26615 ft 382 kts 307°
2026-05-05 23:08 40.51061 -87.00712 27012 ft 383 kts 307°
2026-05-05 23:08 40.52888 -87.03208 27401 ft 384 kts 307°
2026-05-05 23:09 40.54834 -87.05644 27798 ft 392 kts 314°
2026-05-05 23:09 40.57152 -87.07639 28182 ft 405 kts 324°
2026-05-05 23:09 40.59771 -87.09101 28551 ft 413 kts 329°
2026-05-05 23:09 40.62455 -87.10469 28940 ft 414 kts 329°
2026-05-05 23:10 40.65145 -87.11846 29303 ft 415 kts 329°
2026-05-05 23:10 40.67842 -87.13231 29671 ft 416 kts 329°
2026-05-05 23:10 40.70539 -87.14622 30006 ft 418 kts 329°
2026-05-05 23:10 40.73253 -87.16029 30313 ft 418 kts 329°
2026-05-05 23:11 40.75907 -87.17408 30645 ft 418 kts 328°
2026-05-05 23:11 40.78619 -87.18816 30986 ft 417 kts 328°
2026-05-05 23:11 40.81317 -87.20216 31338 ft 416 kts 328°
2026-05-05 23:11 40.83995 -87.21603 31784 ft 412 kts 328°
2026-05-05 23:12 40.86650 -87.22978 32332 ft 406 kts 327°
2026-05-05 23:12 40.89261 -87.24333 32907 ft 400 kts 326°
2026-05-05 23:12 40.91822 -87.25666 33443 ft 395 kts 326°
2026-05-05 23:12 40.94366 -87.26991 33963 ft 389 kts 325°
2026-05-05 23:13 40.96872 -87.28297 34382 ft 385 kts 325°
2026-05-05 23:13 40.99323 -87.29577 34734 ft 382 kts 325°
2026-05-05 23:13 41.01788 -87.30871 35048 ft 381 kts 325°
2026-05-05 23:13 41.04241 -87.32161 35337 ft 379 kts 325°
2026-05-05 23:14 41.06687 -87.33451 35587 ft 379 kts 324°
2026-05-05 23:14 41.09137 -87.34744 35814 ft 379 kts 324°
2026-05-05 23:14 41.14008 -87.37306 35901 ft 374 kts 324°
2026-05-05 23:15 41.18841 -87.39842 35898 ft 373 kts 324°
2026-05-05 23:15 41.23624 -87.42364 35898 ft 372 kts 324°
2026-05-05 23:16 41.28441 -87.44907 35896 ft 372 kts 324°
2026-05-05 23:16 41.33255 -87.47451 35924 ft 373 kts 323°
2026-05-05 23:17 41.38044 -87.49984 35902 ft 373 kts 323°
2026-05-05 23:17 41.42875 -87.52543 35890 ft 373 kts 323°
2026-05-05 23:18 41.47699 -87.55105 35886 ft 374 kts 323°
2026-05-05 23:18 41.52538 -87.57677 35890 ft 375 kts 324°
2026-05-05 23:19 41.57387 -87.60260 35922 ft 375 kts 323°
2026-05-05 23:19 41.62226 -87.62850 35911 ft 376 kts 323°
2026-05-05 23:20 41.67057 -87.65430 35875 ft 376 kts 323°
2026-05-05 23:20 41.71909 -87.68025 35870 ft 376 kts 323°
2026-05-05 23:21 41.76766 -87.70629 35908 ft 377 kts 323°
2026-05-05 23:21 41.81641 -87.73249 35890 ft 378 kts 323°
2026-05-05 23:22 41.86499 -87.75862 35876 ft 379 kts 323°
2026-05-05 23:22 41.91390 -87.78496 35875 ft 379 kts 323°
2026-05-05 23:23 41.96288 -87.81134 35870 ft 379 kts 323°
2026-05-05 23:23 42.01184 -87.83789 35893 ft 380 kts 323°
2026-05-05 23:24 42.06057 -87.86429 35891 ft 380 kts 323°
2026-05-05 23:24 42.10968 -87.89085 35887 ft 380 kts 323°
2026-05-05 23:25 42.15872 -87.91746 35881 ft 380 kts 323°
2026-05-05 23:25 42.20780 -87.94417 35903 ft 380 kts 323°
2026-05-05 23:26 42.23309 -87.95605 35897 ft 392 kts 329°
2026-05-05 23:26 42.25913 -87.96566 35888 ft 393 kts 329°
2026-05-05 23:26 42.31180 -87.98491 35884 ft 393 kts 329°
2026-05-05 23:27 42.36458 -88.00430 35877 ft 393 kts 329°
2026-05-05 23:27 42.41757 -88.02385 35890 ft 393 kts 329°
2026-05-05 23:28 42.46987 -88.04314 35875 ft 392 kts 329°
2026-05-05 23:28 42.52252 -88.06269 35878 ft 393 kts 329°
2026-05-05 23:29 42.57526 -88.08219 35876 ft 393 kts 329°
2026-05-05 23:29 42.62811 -88.10176 35911 ft 394 kts 329°
2026-05-05 23:30 42.68100 -88.12145 35893 ft 394 kts 329°
2026-05-05 23:30 42.73362 -88.14113 35884 ft 395 kts 329°
2026-05-05 23:31 42.78661 -88.16092 35883 ft 395 kts 329°
2026-05-05 23:31 42.83952 -88.18069 35880 ft 395 kts 329°
2026-05-05 23:32 42.89255 -88.20056 35877 ft 395 kts 329°
2026-05-05 23:32 42.94562 -88.22039 35878 ft 395 kts 329°
2026-05-05 23:33 42.99832 -88.24022 35883 ft 395 kts 329°
2026-05-05 23:33 43.05147 -88.26037 35898 ft 397 kts 329°
2026-05-05 23:34 43.10276 -88.28441 35895 ft 375 kts 317°
2026-05-05 23:34 43.12399 -88.30345 35891 ft 358 kts 308°
2026-05-05 23:34 43.14167 -88.32663 35886 ft 346 kts 300°
2026-05-05 23:35 43.17137 -88.37727 35882 ft 343 kts 298°
2026-05-05 23:35 43.20130 -88.42830 35879 ft 344 kts 298°
2026-05-05 23:36 43.23133 -88.47939 35905 ft 345 kts 298°
2026-05-05 23:36 43.26140 -88.53078 35896 ft 345 kts 298°
2026-05-05 23:37 43.29118 -88.58188 35877 ft 346 kts 298°
2026-05-05 23:37 43.32121 -88.63345 35891 ft 346 kts 298°
2026-05-05 23:38 43.35122 -88.68510 35893 ft 346 kts 298°
2026-05-05 23:38 43.38108 -88.73663 35894 ft 346 kts 298°
2026-05-05 23:39 43.41126 -88.78874 35896 ft 346 kts 298°
2026-05-05 23:39 43.44112 -88.84028 35924 ft 348 kts 298°
2026-05-05 23:40 43.47133 -88.89253 35918 ft 349 kts 298°
2026-05-05 23:40 43.50153 -88.94496 35908 ft 349 kts 298°
2026-05-05 23:41 43.53148 -88.99711 35899 ft 350 kts 298°
2026-05-05 23:41 43.56165 -89.04973 35896 ft 350 kts 298°
2026-05-05 23:42 43.59181 -89.10234 35897 ft 350 kts 298°
2026-05-05 23:42 43.62195 -89.15508 35897 ft 350 kts 298°
2026-05-05 23:43 43.65210 -89.20796 35919 ft 351 kts 298°
2026-05-05 23:43 43.68210 -89.26055 35913 ft 351 kts 298°
2026-05-05 23:44 43.71238 -89.31377 35898 ft 352 kts 298°
2026-05-05 23:44 43.74264 -89.36700 35895 ft 352 kts 298°
2026-05-05 23:45 43.77290 -89.42042 35903 ft 353 kts 298°
2026-05-05 23:45 43.80295 -89.47355 35905 ft 353 kts 298°
2026-05-05 23:46 43.83325 -89.52707 35934 ft 353 kts 298°
2026-05-05 23:46 43.86351 -89.58073 35928 ft 354 kts 298°
2026-05-05 23:47 43.89378 -89.63455 35918 ft 354 kts 298°
2026-05-05 23:47 43.92398 -89.68837 35914 ft 354 kts 298°
2026-05-05 23:48 43.95416 -89.74233 35909 ft 354 kts 298°
2026-05-05 23:48 43.98413 -89.79595 35905 ft 354 kts 298°
2026-05-05 23:49 44.01425 -89.84989 35908 ft 354 kts 298°
2026-05-05 23:49 44.04444 -89.90401 35844 ft 358 kts 298°
2026-05-05 23:50 44.05964 -89.93141 35604 ft 358 kts 298°
2026-05-05 23:50 44.07482 -89.95872 35361 ft 356 kts 298°
2026-05-05 23:50 44.09013 -89.98570 35122 ft 354 kts 298°
2026-05-05 23:50 44.10545 -90.01191 34873 ft 352 kts 298°
2026-05-05 23:51 44.12097 -90.03808 34638 ft 350 kts 298°
2026-05-05 23:51 44.13641 -90.06402 34404 ft 347 kts 298°
2026-05-05 23:51 44.15170 -90.08975 34171 ft 343 kts 298°
2026-05-05 23:51 44.16684 -90.11539 33936 ft 340 kts 298°
2026-05-05 23:52 44.18169 -90.14072 33681 ft 337 kts 297°
2026-05-05 23:52 44.19644 -90.16605 33412 ft 336 kts 297°
2026-05-05 23:52 44.21111 -90.19128 33132 ft 335 kts 297°
2026-05-05 23:52 44.22561 -90.21621 32898 ft 334 kts 297°
2026-05-05 23:53 44.24018 -90.24126 32665 ft 333 kts 297°
2026-05-05 23:53 44.25469 -90.26626 32404 ft 331 kts 297°
2026-05-05 23:53 44.26919 -90.29127 32145 ft 330 kts 297°
2026-05-05 23:53 44.28360 -90.31615 31893 ft 329 kts 297°
2026-05-05 23:54 44.29799 -90.34102 31637 ft 328 kts 297°
2026-05-05 23:54 44.31227 -90.36575 31389 ft 327 kts 296°
2026-05-05 23:54 44.32662 -90.39054 31140 ft 326 kts 296°
2026-05-05 23:54 44.34024 -90.41550 30896 ft 319 kts 292°
2026-05-05 23:55 44.35147 -90.44182 30646 ft 311 kts 287°
2026-05-05 23:55 44.36013 -90.46860 30409 ft 305 kts 283°
2026-05-05 23:55 44.36821 -90.49610 30166 ft 304 kts 283°
2026-05-05 23:55 44.37625 -90.52326 29919 ft 304 kts 283°
2026-05-05 23:56 44.38437 -90.55054 29636 ft 302 kts 283°
2026-05-05 23:56 44.39242 -90.57761 29351 ft 301 kts 283°
2026-05-05 23:56 44.40037 -90.60452 29072 ft 299 kts 283°
2026-05-05 23:56 44.40827 -90.63131 28892 ft 296 kts 283°
2026-05-05 23:57 44.41615 -90.65805 28928 ft 298 kts 283°
2026-05-05 23:57 44.42394 -90.68455 28904 ft 299 kts 283°
2026-05-05 23:57 44.43180 -90.71113 28622 ft 294 kts 283°
2026-05-05 23:57 44.43965 -90.73755 28349 ft 292 kts 283°
2026-05-05 23:58 44.44737 -90.76362 28082 ft 291 kts 283°
2026-05-05 23:58 44.45508 -90.78975 27812 ft 289 kts 283°
2026-05-05 23:58 44.46272 -90.81566 27548 ft 288 kts 283°
2026-05-05 23:58 44.47035 -90.84143 27286 ft 286 kts 283°
2026-05-05 23:59 44.47798 -90.86724 27027 ft 285 kts 283°
2026-05-05 23:59 44.48541 -90.89243 26771 ft 284 kts 283°
2026-05-05 23:59 44.49301 -90.91836 26511 ft 283 kts 283°
2026-05-05 23:59 44.50034 -90.94348 26260 ft 282 kts 284°
2026-05-06 00:00 44.50774 -90.96880 26006 ft 280 kts 284°
2026-05-06 00:00 44.51511 -90.99403 25761 ft 279 kts 284°
2026-05-06 00:00 44.52244 -91.01915 25522 ft 278 kts 284°
2026-05-06 00:00 44.52977 -91.04421 25273 ft 277 kts 284°
2026-05-06 00:01 44.53705 -91.06913 25030 ft 276 kts 284°
2026-05-06 00:01 44.54432 -91.09400 24791 ft 275 kts 284°
2026-05-06 00:01 44.55156 -91.11879 24550 ft 274 kts 284°
2026-05-06 00:01 44.55872 -91.14350 24310 ft 273 kts 284°
2026-05-06 00:02 44.56574 -91.16782 24077 ft 272 kts 284°
2026-05-06 00:02 44.57278 -91.19226 23894 ft 270 kts 284°
2026-05-06 00:02 44.57982 -91.21665 23921 ft 270 kts 284°
2026-05-06 00:02 44.58687 -91.24108 23926 ft 271 kts 284°
2026-05-06 00:03 44.59397 -91.26558 23926 ft 271 kts 284°
2026-05-06 00:03 44.60109 -91.29013 23925 ft 271 kts 284°
2026-05-06 00:03 44.60816 -91.31459 23970 ft 271 kts 284°
2026-05-06 00:03 44.61525 -91.33909 23936 ft 272 kts 285°
2026-05-06 00:04 44.62241 -91.36378 23852 ft 274 kts 285°
2026-05-06 00:04 44.62955 -91.38844 23614 ft 272 kts 285°
2026-05-06 00:04 44.63665 -91.41304 23357 ft 271 kts 285°
2026-05-06 00:04 44.64363 -91.43733 23064 ft 272 kts 285°
2026-05-06 00:05 44.65781 -91.48670 22531 ft 274 kts 285°
2026-05-06 00:05 44.66497 -91.51162 22253 ft 276 kts 286°
2026-05-06 00:05 44.67219 -91.53671 21994 ft 278 kts 286°
2026-05-06 00:06 44.67946 -91.56203 21728 ft 281 kts 287°
2026-05-06 00:06 44.68676 -91.58752 21460 ft 282 kts 287°
2026-05-06 00:06 44.69412 -91.61323 21199 ft 284 kts 287°
2026-05-06 00:06 44.70152 -91.63907 20937 ft 285 kts 287°
2026-05-06 00:07 44.70893 -91.66491 20678 ft 287 kts 288°
2026-05-06 00:07 44.71630 -91.69068 20427 ft 288 kts 288°
2026-05-06 00:07 44.72378 -91.71683 20182 ft 289 kts 288°
2026-05-06 00:07 44.73133 -91.74314 19931 ft 291 kts 288°
2026-05-06 00:08 44.73887 -91.76958 19676 ft 292 kts 288°
2026-05-06 00:08 44.74644 -91.79621 19422 ft 294 kts 289°
2026-05-06 00:08 44.75402 -91.82295 19195 ft 295 kts 289°
2026-05-06 00:08 44.76164 -91.84989 18942 ft 297 kts 289°
2026-05-06 00:09 44.76930 -91.87695 18704 ft 298 kts 289°
2026-05-06 00:09 44.77680 -91.90392 18414 ft 296 kts 289°
2026-05-06 00:09 44.78418 -91.93096 17976 ft 296 kts 289°
2026-05-06 00:09 44.79139 -91.95759 17559 ft 295 kts 289°
2026-05-06 00:10 44.79865 -91.98455 17145 ft 294 kts 289°
2026-05-06 00:10 44.80590 -92.01142 16724 ft 293 kts 289°
2026-05-06 00:10 44.81314 -92.03828 16322 ft 293 kts 289°
2026-05-06 00:10 44.82034 -92.06502 15913 ft 293 kts 289°
2026-05-06 00:11 44.82754 -92.09175 15507 ft 292 kts 289°
2026-05-06 00:11 44.83476 -92.11852 15157 ft 290 kts 290°
2026-05-06 00:11 44.84182 -92.14466 14776 ft 289 kts 290°
2026-05-06 00:11 44.84899 -92.17119 14382 ft 289 kts 289°
2026-05-06 00:12 44.85370 -92.19852 13985 ft 289 kts 276°
2026-05-06 00:12 44.85539 -92.22676 13569 ft 288 kts 275°
2026-05-06 00:12 44.85701 -92.25389 13169 ft 287 kts 275°
2026-05-06 00:12 44.85873 -92.28210 12756 ft 286 kts 275°
2026-05-06 00:13 44.86044 -92.30979 12360 ft 284 kts 275°
2026-05-06 00:13 44.86208 -92.33747 11965 ft 282 kts 275°
2026-05-06 00:13 44.86351 -92.36508 11556 ft 281 kts 275°
2026-05-06 00:13 44.86481 -92.39214 11159 ft 280 kts 275°
2026-05-06 00:14 44.86611 -92.41980 10736 ft 279 kts 275°
2026-05-06 00:14 44.86737 -92.44678 10345 ft 279 kts 275°
2026-05-06 00:14 44.86753 -92.47399 9941 ft 278 kts 265°
2026-05-06 00:14 44.86332 -92.50020 9780 ft 271 kts 253°
2026-05-06 00:15 44.85553 -92.52417 9447 ft 269 kts 246°
2026-05-06 00:15 44.84695 -92.54754 9025 ft 268 kts 246°
2026-05-06 00:15 44.83854 -92.57047 8616 ft 268 kts 246°
2026-05-06 00:15 44.83008 -92.59363 8213 ft 267 kts 246°
2026-05-06 00:16 44.82150 -92.61716 7779 ft 266 kts 246°
2026-05-06 00:16 44.81317 -92.63997 7394 ft 265 kts 246°
2026-05-06 00:16 44.80472 -92.66297 7029 ft 263 kts 246°
2026-05-06 00:16 44.79641 -92.68553 6995 ft 257 kts 246°
2026-05-06 00:17 44.78841 -92.70716 7001 ft 241 kts 246°
2026-05-06 00:17 44.78094 -92.72738 7002 ft 225 kts 246°
2026-05-06 00:17 44.77438 -92.74657 6991 ft 209 kts 255°
2026-05-06 00:17 44.77179 -92.76578 6948 ft 195 kts 271°
2026-05-06 00:18 44.77274 -92.78441 6674 ft 193 kts 278°
2026-05-06 00:18 44.77413 -92.80314 6441 ft 192 kts 278°
2026-05-06 00:18 44.77545 -92.82168 6200 ft 188 kts 278°
2026-05-06 00:18 44.77671 -92.83985 5971 ft 186 kts 278°
2026-05-06 00:19 44.77798 -92.85797 5752 ft 185 kts 278°
2026-05-06 00:19 44.77923 -92.87598 5535 ft 184 kts 278°
2026-05-06 00:19 44.78045 -92.89390 5320 ft 184 kts 278°
2026-05-06 00:19 44.78167 -92.91182 5108 ft 183 kts 278°
2026-05-06 00:20 44.78286 -92.92926 4913 ft 175 kts 278°
2026-05-06 00:20 44.78397 -92.94570 4693 ft 167 kts 278°
2026-05-06 00:20 44.78506 -92.96158 4489 ft 160 kts 279°
2026-05-06 00:20 44.78611 -92.97675 4308 ft 152 kts 279°
2026-05-06 00:21 44.78711 -92.99132 4130 ft 147 kts 279°
2026-05-06 00:21 44.78938 -93.00479 3957 ft 139 kts 301°
2026-05-06 00:21 44.79401 -93.01649 3791 ft 135 kts 300°
2026-05-06 00:21 44.79853 -93.02781 3617 ft 132 kts 301°
2026-05-06 00:22 44.80323 -93.03907 3424 ft 133 kts 302°
2026-05-06 00:22 44.80796 -93.05014 3265 ft 132 kts 302°
2026-05-06 00:22 44.81262 -93.06098 3104 ft 130 kts 303°
2026-05-06 00:22 44.81733 -93.07184 3024 ft 129 kts 303°
2026-05-06 00:23 44.82202 -93.08263 3008 ft 129 kts 303°
2026-05-06 00:23 44.82674 -93.09348 3004 ft 131 kts 303°
2026-05-06 00:23 44.83149 -93.10442 3011 ft 131 kts 303°
2026-05-06 00:23 44.83625 -93.11537 2970 ft 132 kts 303°
2026-05-06 00:24 44.84105 -93.12657 2573 ft 138 kts 302°
2026-05-06 00:24 44.84588 -93.13848 2157 ft 143 kts 302°
2026-05-06 00:24 44.85116 -93.15042 1760 ft 142 kts 303°
2026-05-06 00:24 44.85635 -93.16203 1453 ft 138 kts 303°
2026-05-06 00:25 44.86132 -93.17326 1270 ft 133 kts 302°
2026-05-06 00:25 44.86600 -93.18423 1110 ft 129 kts 303°
2026-05-06 00:25 44.87069 -93.19478 934 ft 127 kts 303°
2026-05-06 00:25 44.87523 -93.20524 843 ft 120 kts 304°
2026-05-06 00:26 44.87898 -93.21377 832 ft 88 kts 300°
2026-05-06 00:26 44.88154 -93.21967 835 ft 59 kts 301°
2026-05-06 00:26 44.88309 -93.22325 828 ft 29 kts 301°
2026-05-06 00:26 44.88409 -93.22430 831 ft 14 kts
2026-05-06 00:27 44.88421 -93.22426 834 ft 0 kts 17°
2026-05-06 00:27 44.88424 -93.22424 831 ft 2 kts 18°
2026-05-06 00:28 44.88447 -93.22395 833 ft 6 kts 63°
2026-05-06 00:28 44.88442 -93.22340 834 ft 6 kts 117°
2026-05-06 00:28 44.88420 -93.22288 835 ft 6 kts 120°
2026-05-06 00:28 44.88390 -93.22221 828 ft 10 kts 122°
2026-05-06 00:29 44.88345 -93.22113 831 ft 16 kts 120°
2026-05-06 00:29 44.88300 -93.22004 831 ft 11 kts 112°
2026-05-06 00:29 44.88320 -93.21925 834 ft 7 kts 40°
2026-05-06 00:29 44.88364 -93.21874 837 ft 11 kts 40°
2026-05-06 00:30 44.88425 -93.21790 833 ft 13 kts 47°
2026-05-06 00:30 44.88417 -93.21742 840 ft 6 kts 118°
2026-05-06 00:30 44.88400 -93.21677 836 ft 8 kts 109°
2026-05-06 00:30 44.88395 -93.21658 836 ft 0 kts 110°